Weather History for Wrangell, AK

Change the Weather History Date:

Sunday, March 17, 2013

  Actual Average Record
Temperature  
Mean Temperature 30 °F -  
Max Temperature 33 °F 44 °F 53 °F (1990)
Min Temperature 26 °F 31 °F 12 °F (2006)
Degree Days  
Heating Degree Days 36    
Moisture  
Dew Point 22 °F    
Average Humidity 71    
Maximum Humidity 86    
Minimum Humidity 56    
Precipitation  
Precipitation 0.00 in - - ()
Sea Level Pressure  
Sea Level Pressure 30.03 in    
Wind  
Wind Speed 6 mph (NW)    
Max Wind Speed 9 mph    
Max Gust Speed -    
Visibility 9 miles    
Events      
Averages and records for this station are not official NWS values.
T = Trace of Precipitation, MM = Missing Value Source: NWS Daily Summary

Daily Weather History Graph

Daily Weather History Graph

Search for Another Location

Airport:

Trip Planner

Search our weather history database for the weather conditions in past years. The results will help you decide how hot, cold, wet, or windy it might be!

Date:

Astronomy

Mar. 17, 2013 Rise Set
Actual Time 6:58 AM AKDT 6:58 PM AKDT
Civil Twilight 6:21 AM AKDT 7:35 PM AKDT
Nautical Twilight 5:36 AM AKDT 8:20 PM AKDT
Astronomical Twilight 4:49 AM AKDT 9:07 PM AKDT
Moon 9:12 AM AKDT (3/17) 1:14 AM AKDT (3/17)
Length of Visible Light 13h 14m
Length of Day
11h 59m
Waxing Crescent, 33% of the Moon is Illuminated
Mar 17
Waxing Crescent
Mar 19
First Quarter
Mar 27
Full
Apr 2
Last Quarter
Apr 10
New

Hourly Weather History & Observations

Time (AKDT) Temp. Windchill Dew Point Humidity Pressure Visibility Wind Dir Wind Speed Gust Speed Precip Events Conditions
12:16 AM 28.4 °F 20.4 °F 19.4 °F 69% 30.00 in 10.0 mi NW 8.1 mph - N/A   Overcast
12:36 AM 28.4 °F 21.2 °F 19.4 °F 69% 30.00 in 10.0 mi NW 6.9 mph - N/A   Overcast
12:56 AM 28.4 °F 21.2 °F 21.2 °F 74% 30.01 in 10.0 mi NW 6.9 mph - N/A   Scattered Clouds
1:16 AM 26.6 °F 20.0 °F 19.4 °F 74% 30.01 in 10.0 mi WNW 5.8 mph - N/A   Scattered Clouds
1:36 AM 28.4 °F 22.2 °F 19.4 °F 69% 30.01 in 10.0 mi West 5.8 mph - N/A   Overcast
1:56 AM 26.6 °F 20.0 °F 21.2 °F 80% 30.01 in 10.0 mi West 5.8 mph - N/A   Overcast
2:16 AM 28.4 °F 21.2 °F 21.2 °F 74% 30.01 in 10.0 mi WNW 6.9 mph - N/A   Overcast
2:36 AM 28.4 °F 22.2 °F 19.4 °F 69% 30.01 in 10.0 mi West 5.8 mph - N/A   Mostly Cloudy
2:56 AM 28.4 °F 23.3 °F 21.2 °F 74% 30.01 in 10.0 mi West 4.6 mph - N/A   Overcast
3:16 AM 28.4 °F 22.2 °F 21.2 °F 74% 30.02 in 10.0 mi WNW 5.8 mph - N/A   Overcast
3:36 AM 28.4 °F 22.2 °F 21.2 °F 74% 30.02 in 10.0 mi WNW 5.8 mph - N/A   Overcast
3:56 AM 28.4 °F 22.2 °F 21.2 °F 74% 30.01 in 10.0 mi NNW 5.8 mph - N/A   Overcast
4:16 AM 28.4 °F 23.3 °F 21.2 °F 74% 30.02 in 10.0 mi NNW 4.6 mph - N/A   Overcast
4:36 AM 28.4 °F 24.6 °F 21.2 °F 74% 30.02 in 10.0 mi NW 3.5 mph - N/A   Overcast
4:56 AM 28.4 °F 24.6 °F 21.2 °F 74% 30.02 in 10.0 mi West 3.5 mph - N/A   Overcast
5:16 AM 28.4 °F 24.6 °F 21.2 °F 74% 30.02 in 10.0 mi NNW 3.5 mph - N/A   Overcast
5:36 AM 28.4 °F 23.3 °F 21.2 °F 74% 30.02 in 10.0 mi NW 4.6 mph - N/A   Overcast
5:56 AM 28.4 °F - 21.2 °F 74% 30.02 in 10.0 mi Calm Calm - N/A   Overcast
6:16 AM 28.4 °F - 21.2 °F 74% 30.02 in 10.0 mi Calm Calm - N/A   Overcast
6:36 AM 28.4 °F 22.2 °F 21.2 °F 74% 30.02 in 10.0 mi NW 5.8 mph - N/A   Overcast
6:56 AM 28.4 °F 22.2 °F 21.2 °F 74% 30.02 in 10.0 mi NW 5.8 mph - N/A   Mostly Cloudy
7:16 AM 28.4 °F 24.6 °F 21.2 °F 74% 30.03 in 10.0 mi West 3.5 mph - N/A   Mostly Cloudy
7:36 AM 28.4 °F 21.2 °F 21.2 °F 74% 30.02 in 10.0 mi NNW 6.9 mph - N/A   Mostly Cloudy
7:56 AM 28.4 °F 22.2 °F 21.2 °F 74% 30.03 in 10.0 mi NNW 5.8 mph - N/A   Mostly Cloudy
8:16 AM 30.2 °F 25.4 °F 21.2 °F 69% 30.03 in 10.0 mi NNW 4.6 mph - N/A   Mostly Cloudy
8:36 AM 30.2 °F 23.4 °F 21.2 °F 69% 30.03 in 10.0 mi NW 6.9 mph - N/A   Mostly Cloudy
8:56 AM 28.4 °F 19.7 °F 21.2 °F 74% 30.03 in 10.0 mi NW 9.2 mph - N/A   Mostly Cloudy
9:16 AM 28.4 °F 20.4 °F 21.2 °F 74% 30.03 in 10.0 mi NW 8.1 mph - N/A   Mostly Cloudy
9:36 AM 28.4 °F 21.2 °F 21.2 °F 74% 30.03 in 10.0 mi WNW 6.9 mph - N/A   Mostly Cloudy
9:56 AM 28.4 °F 20.4 °F 21.2 °F 74% 30.04 in 10.0 mi NW 8.1 mph - N/A   Mostly Cloudy
10:16 AM 28.4 °F 21.2 °F 21.2 °F 74% 30.04 in 10.0 mi NW 6.9 mph - N/A   Mostly Cloudy
10:36 AM 28.4 °F 22.2 °F 21.2 °F 74% 30.04 in 10.0 mi WNW 5.8 mph - N/A   Mostly Cloudy
10:56 AM 28.4 °F 23.3 °F 21.2 °F 74% 30.05 in 10.0 mi WNW 4.6 mph - N/A   Mostly Cloudy
11:16 AM 28.4 °F 22.2 °F 21.2 °F 74% 30.05 in 10.0 mi WNW 5.8 mph - N/A   Mostly Cloudy
11:36 AM 30.2 °F 23.4 °F 21.2 °F 69% 30.05 in 10.0 mi NW 6.9 mph - N/A   Mostly Cloudy
11:56 AM 30.2 °F 21.9 °F 19.4 °F 64% 30.05 in 10.0 mi NW 9.2 mph - N/A   Mostly Cloudy
12:16 PM 30.2 °F 23.4 °F 21.2 °F 69% 30.05 in 10.0 mi NW 6.9 mph - N/A   Mostly Cloudy
12:36 PM 30.2 °F 23.4 °F 21.2 °F 69% 30.05 in 10.0 mi NW 6.9 mph - N/A   Mostly Cloudy
12:56 PM 32.0 °F 25.6 °F 21.2 °F 64% 30.05 in 10.0 mi NW 6.9 mph - N/A   Scattered Clouds
1:16 PM 33.8 °F 29.6 °F 21.2 °F 60% 30.05 in 10.0 mi NNW 4.6 mph - N/A   Scattered Clouds
1:36 PM 33.8 °F 27.0 °F 21.2 °F 60% 30.05 in 10.0 mi NW 8.1 mph - N/A   Scattered Clouds
1:56 PM 33.8 °F 27.7 °F 21.2 °F 60% 30.06 in 10.0 mi NW 6.9 mph - N/A   Scattered Clouds
2:16 PM 33.8 °F 27.0 °F 21.2 °F 60% 30.05 in 10.0 mi NW 8.1 mph - N/A   Scattered Clouds
2:36 PM 33.8 °F 27.7 °F 21.2 °F 60% 30.05 in 10.0 mi NW 6.9 mph - N/A   Scattered Clouds
2:56 PM 33.8 °F 28.6 °F 21.2 °F 60% 30.05 in 10.0 mi NW 5.8 mph - N/A   Scattered Clouds
3:16 PM 33.8 °F 27.7 °F 19.4 °F 56% 30.05 in 10.0 mi NW 6.9 mph - N/A   Scattered Clouds
3:36 PM 33.8 °F 27.0 °F 21.2 °F 60% 30.05 in 10.0 mi NW 8.1 mph - N/A   Scattered Clouds
3:56 PM 33.8 °F 27.7 °F 21.2 °F 60% 30.04 in 10.0 mi NW 6.9 mph - N/A   Mostly Cloudy
4:16 PM 33.8 °F 27.0 °F 19.4 °F 56% 30.04 in 10.0 mi NW 8.1 mph - N/A   Mostly Cloudy
4:36 PM 33.8 °F 27.7 °F 19.4 °F 56% 30.04 in 10.0 mi NW 6.9 mph - N/A   Mostly Cloudy
4:56 PM 33.8 °F 29.6 °F 21.2 °F 60% 30.04 in 10.0 mi NNW 4.6 mph - N/A   Mostly Cloudy
5:16 PM 33.8 °F 28.6 °F 19.4 °F 56% 30.03 in 10.0 mi NNW 5.8 mph - N/A   Mostly Cloudy
5:36 PM 33.8 °F 28.6 °F 21.2 °F 60% 30.03 in 10.0 mi NW 5.8 mph - N/A   Mostly Cloudy
5:56 PM 33.8 °F 27.7 °F 21.2 °F 60% 30.03 in 10.0 mi NNW 6.9 mph - N/A   Mostly Cloudy
6:16 PM 33.8 °F 28.6 °F 21.2 °F 60% 30.02 in 10.0 mi NNW 5.8 mph - N/A   Mostly Cloudy
6:36 PM 32.0 °F - 21.2 °F 64% 30.02 in 10.0 mi Calm Calm - N/A   Mostly Cloudy
6:56 PM 32.0 °F - 21.2 °F 64% 30.02 in 10.0 mi Calm Calm - N/A   Overcast
7:16 PM 32.0 °F 26.4 °F 23.0 °F 69% 30.02 in 10.0 mi NNW 5.8 mph - N/A   Overcast
7:36 PM 30.2 °F 26.7 °F 24.8 °F 80% 30.02 in 4.0 mi NNW 3.5 mph - N/A   Overcast
7:56 PM 30.2 °F 25.4 °F 24.8 °F 80% 30.02 in 4.0 mi NNW 4.6 mph - N/A   Overcast
8:16 PM 30.2 °F 25.4 °F 24.8 °F 80% 30.02 in 4.0 mi NNW 4.6 mph - N/A   Overcast
8:36 PM 30.2 °F 26.7 °F 24.8 °F 80% 30.02 in 4.0 mi NNW 3.5 mph - N/A   Overcast
8:56 PM 30.2 °F 25.4 °F 24.8 °F 80% 30.02 in 5.0 mi NNW 4.6 mph - N/A   Overcast
9:16 PM 30.2 °F 25.4 °F 24.8 °F 80% 30.02 in 5.0 mi NNW 4.6 mph - N/A   Overcast
9:36 PM 30.2 °F 24.3 °F 24.8 °F 80% 30.02 in 5.0 mi NNW 5.8 mph - N/A   Overcast
9:56 PM 30.2 °F - 26.6 °F 86% 30.02 in 6.0 mi Calm Calm - N/A   Overcast
10:16 PM 30.2 °F 25.4 °F 24.8 °F 80% 30.03 in 6.0 mi NW 4.6 mph - N/A   Overcast
10:36 PM 30.2 °F 26.7 °F 24.8 °F 80% 30.02 in 6.0 mi NNW 3.5 mph - N/A   Overcast
10:56 PM 30.2 °F 25.4 °F 24.8 °F 80% 30.03 in 6.0 mi NNW 4.6 mph - N/A   Overcast
11:16 PM 30.2 °F 24.3 °F 24.8 °F 80% 30.02 in 10.0 mi NNW 5.8 mph - N/A   Overcast
11:36 PM 30.2 °F 24.3 °F 24.8 °F 80% 30.02 in 10.0 mi NNW 5.8 mph - N/A   Overcast
11:56 PM 30.2 °F 26.7 °F 24.8 °F 80% 30.02 in 10.0 mi NNW 3.5 mph - N/A   Overcast